Location: Spring Creek
(38.2870°N, 100.2160°W)
Time: 01:35:53
(UTC+00:00)

Cosmos 1536 Rocket - Pass Details

Date: 08 May 2021
Orbit: 605 x 633 km, 82.5° (Epoch: 22 June)

Event Time Altitude Azimuth Distance (km) Brightness Sun altitude
Exits shadow 09:50:07 29° 183° (S) 1,135 4.5 -18.5°
Maximum altitude 09:52:20 85° 98° (E) 624 3.5 -18.1°
Drops below altitude 10° 09:56:45 10° 8° (N) 1,995 6.8 -17.5°
Sets 09:59:00 0° 8° (N) 2,910 7.8 -17.1°
